SCP
0 0 0 0 0 0 0 0 0 0 0 0 0 0 0 0 0 0 0 0 0 0 0 0 0 0 0 0 0 0 0 0 0 0 0 0 0 0
0 0 0 0 0 0 0 0 0 0 0 0 0 0 0 0 0 0 0 0 0 0 0 0 0 0 0 0 0 0 0 0 0 0 0 0 0 0
0 0 0 0 0 0 0 0 0 0 0 0 0 0 0 0 0 0 0 0 0 0 0 0 0 0 0 0 0 0 0 0 0 0 0 0 0 0
0 0 0 0 0 0 0 0 0 0 0 0 0 0 0 0 0 0 0 0 0 0 0 0 0 0 0 0 0 0 0 0 0 0 0 0 0 0
0 0 0 0 0 0 0 0 0 0 0 0 0 0 0 0 0 0 0 0 0 0 0 0 0 0 0 0 0 0 0 0 0 0 0 0 0 0
0 0 0 0 0 0 0 0 0 0 0 0 0 0 0 0 0 0 0 0 0 0 0 0 0 0 0 0 0 0 0 0 0 0 0 0 0 0
0 0 0 0 0 0 0 0 0 0 0 0 0 0 0 0 0 0 0 0 0 0 0 0 0 0 0 0 0 0 0 0 0 0 0 0 0 0
0 0 0 0 0 0 0 0 0 0 0 0 0 0 0 0 0 0 0 0 0 0 0 0 0 0 0 0 0 0 0 0 0 0 0 0 0 0
0 0 0 0 0 0 0 0 0 0 0 0 0 0 0 0 0 0 0 0 0 0 0 0 0 0 0 0 0 0 0 0 0 0 0 0 0 0
0 0 0 0 0 0 0 0 0 0 0 0 0 0 0 0 0 0 0 0 0 0 0 0 0 0 0 0 0 0 0 0 0 0 0 0 0 0
0 0 0 0 0 0 0 0 0 0 0 0 0 0 0 0 0 0 0 0 0 0 0 0 0 0 0 0 0 0 0 0 0 0 0 0 0 0
0 0 0 0 0 0 0 0 0 0 0 0 0 0 0 0 0 0 0 0 0 0 0 0 0 0 0 0 0 0 0 0 0 0 0 0 0 0
0 0 0 0 0 0 0 0 0 0 0 0 0 0 0 0 0 0 0 0 0 0 0 0 0 0 0 0 0 0 0 0 0 0 0 0 0 0
0 0 0 0 0 0 0 0 0 0 0 0 0 0 0 0 0 0 0 0 0 0 0 0 0 0 0 0 0 0 0 0 0 0 0 0 0 0
0 0 0 0 0 0 0 0 0 0 0 0 0 0 0 0 0 0 0 0 0 0 0 0 0 0 0 0 0 0 0 0 0 0 0 0 0 0
0 0 0 0 0 0 0 0 0 0 0 0 0 0 0 0 0 0 0 0 0 0 0 0 0 0 0 0 0 0 0 0 0 0 0 0 0 0
0 0 0 0 0 0 0 0 0 0 0 0 0 0 0 0 0 0 0 0 0 0 0 0 0 0 0 0 0 0 0 0 0 0 0 0 0 0
0 0 0 0 0 0 0 0 0 0 0 0 0 0 0 0 0 0 0 0 0 0 0 0 0 0 0 0 0 0 0 0 0 0 0 0 0 0
0 0 0 0 0 0 0 0 0 0 0 0 0 0 0 0 0 0 0 0 0 0 0 0 0 0 0 0 0 0 0 0 0 0 0 0 0 0
0 0 0 0 0 0 0 0 0 0 0 0 0 0 0 0 0 0 0 0 0 0 0 0 0 0 0 0 0 0 0 0 0 0 0 0 0 0
0 0 0 0 0 0 0 0 0 0 0 0 0 0 0 0 0 0 0 0 0 0 0 0 0 0 0 0 0 0 0 0 0 0 0 0 0 0
0 0 0 0 0 0 0 0 0 0 0 0 0 0 0 0 0 0 0 0 0 0 0 0 0 0 0 0 0 0 0 0 0 0 0 0 0 0
0 0 0 0 0 0 0 0 0 0 0 0 0 0 0 0 0 0 0 0 0 0 0 0 0 0 0 0 0 0 0 0 0 0 0 0 0 0
Wind_Speed
2 2 1 1 2 2 2 1 2 1 1 0 1 0 1 2 1 1 2 3 4 4 5 5 6 6 6 7 7 7 7 8 7 7 7 7 7 6
1 2 2 2 2 2 2 2 2 1 0 0 0 1 1 1 2 0 2 3 2 1 2 3 4 4 4 5 5 6 6 6 7 7 7 7 7 7
1 2 2 2 2 1 2 2 2 2 1 1 1 1 2 1 1 1 1 1 1 2 1 1 2 2 2 2 3 4 5 5 5 6 6 6 6 6
1 2 2 2 2 2 1 2 1 1 1 1 2 2 1 0 0 1 1 1 1 2 3 2 2 2 2 1 2 3 4 4 5 5 6 6 6 6
1 2 2 2 1 1 1 1 1 1 1 1 1 1 1 1 1 2 2 2 2 1 3 4 4 4 3 3 2 3 3 4 4 5 5 6 7 7
2 2 2 2 2 2 1 1 1 1 1 1 1 1 1 1 1 1 3 2 2 2 2 2 4 5 5 5 4 4 4 5 5 5 5 6 7 8
2 2 3 4 5 3 2 2 2 1 1 1 1 1 2 2 1 1 2 3 3 1 1 2 1 2 3 5 6 6 6 6 6 6 6 7 8 9
1 2 2 3 3 3 3 2 2 1 0 1 1 1 2 2 1 1 2 2 3 2 1 3 1 2 3 3 4 6 7 6 6 6 7 7 8 9
1 1 1 2 2 1 0 0 1 1 1 1 0 1 1 2 2 2 2 2 3 3 2 3 2 3 3 3 4 5 5 5 6 7 8 8 9 10
1 1 1 2 3 2 1 1 1 1 2 2 2 2 1 1 1 1 2 3 3 3 1 2 3 3 4 2 4 4 4 5 6 7 8 8 9 10
2 3 2 2 4 4 2 1 1 2 2 1 1 2 2 2 2 2 2 2 3 3 2 1 2 3 3 2 3 5 5 6 7 9 9 9 10 10
2 3 4 3 4 4 2 1 2 2 3 3 2 3 2 2 2 0 0 1 2 3 3 2 2 3 4 3 3 3 4 6 9 9 10 10 9 5
1 1 2 4 4 4 3 1 2 3 2 2 2 2 2 2 2 1 0 0 1 2 3 2 2 2 2 4 4 3 3 3 4 5 7 9 9 6
1 2 2 3 3 3 2 4 5 4 2 2 2 2 2 2 2 2 2 1 1 3 3 1 1 2 3 4 4 4 4 4 3 3 3 7 8 9
2 3 3 2 1 1 2 4 4 2 2 2 2 2 2 2 2 2 3 3 3 3 3 2 2 2 2 3 4 4 4 4 3 3 4 4 4 4
2 2 2 2 2 2 2 2 2 2 2 1 2 2 2 2 2 2 2 3 3 3 3 3 3 3 3 4 4 5 4 4 5 5 5 5 4 4
2 1 1 1 1 1 1 1 1 2 2 2 2 2 3 3 3 2 2 2 2 3 4 4 4 4 4 4 4 4 4 5 5 5 5 5 5 5
3 1 1 1 1 1 1 1 1 2 2 2 2 2 3 3 3 3 3 3 3 3 4 4 4 4 4 4 3 4 5 5 6 6 5 6 6 5
2 1 1 1 1 1 1 1 1 1 1 2 2 2 2 3 3 4 4 4 4 4 4 4 4 4 6 7 6 4 5 6 5 5 5 6 7 7
1 1 1 1 1 1 1 1 1 1 2 2 2 2 3 3 3 4 4 4 4 4 4 4 4 4 5 6 7 7 7 5 5 6 6 6 6 8
1 1 0 1 1 1 1 1 1 1 2 2 2 2 2 2 3 3 4 6 5 4 5 5 5 8 5 4 6 6 6 7 7 7 7 7 8 7
1 1 0 1 1 1 1 1 1 1 2 2 2 2 2 2 3 4 4 4 4 4 6 5 6 5 4 5 7 8 8 7 8 11 10 9 7 8
1 1 1 1 1 1 1 1 1 1 1 2 2 2 3 3 3 3 4 4 4 5 6 6 5 5 5 6 7 7 10 9 7 7 6 10 14 16
Wind_Direction
49 58 63 50 32 27 34 68 101 65 353 49 51 78 111 112 87 106 127 88 72 47 39 36 31 27 28 28 27 28 25 23 20 17 14 12 14 15
67 54 40 37 36 29 22 22 51 99 82 340 113 188 114 98 110 90 143 127 113 79 26 25 21 15 18 19 19 20 19 17 16 14 10 8 7 5
76 84 67 48 43 26 24 28 31 58 68 334 15 40 80 59 70 303 198 182 191 189 237 342 354 349 352 359 5 7 5 4 1 359 358 358 356 354
62 84 96 83 60 36 33 29 32 52 88 14 346 3 13 8 81 292 301 243 214 211 220 238 262 275 286 298 329 342 347 347 344 340 339 338 336 334
93 86 79 75 67 43 53 34 11 38 64 85 334 332 330 349 28 332 315 304 292 253 225 233 242 250 257 258 278 298 314 321 323 324 325 325 324 322
94 96 80 75 63 32 45 25 28 34 30 42 339 324 312 321 49 334 332 317 303 298 282 245 238 248 252 256 258 267 277 287 293 299 304 309 311 310
87 97 100 91 78 64 60 30 34 39 25 23 338 344 333 347 329 308 322 312 307 300 313 294 263 259 251 250 252 260 265 270 277 286 292 296 298 298
93 93 113 107 90 80 74 67 76 87 34 24 353 345 325 330 328 335 327 338 320 317 342 299 290 275 261 239 246 250 256 263 272 279 286 290 293 294
91 95 83 93 116 157 225 292 319 265 201 172 209 277 298 314 336 341 334 318 284 287 340 299 298 293 284 285 274 263 261 268 277 282 286 290 292 292
122 115 96 69 31 32 43 45 336 293 241 204 211 244 273 317 335 310 295 311 301 308 344 291 300 299 300 299 297 292 283 281 286 287 289 290 291 291
83 63 81 79 31 27 28 9 342 329 309 284 253 265 291 319 352 15 346 349 321 308 324 309 304 308 301 301 308 301 292 291 293 290 290 291 293 293
95 79 65 67 40 32 37 29 3 331 334 330 322 311 309 309 322 188 244 320 318 308 328 348 327 343 320 307 330 327 311 303 297 294 297 298 299 296
71 80 74 68 52 35 33 34 341 330 324 338 352 354 355 350 341 326 303 218 272 284 311 347 325 330 299 305 311 312 314 316 314 306 303 305 303 293
87 86 89 91 70 41 28 7 1 7 2 5 2 349 345 336 333 336 331 318 278 272 298 346 313 306 307 304 302 309 315 311 306 305 307 314 307 301
74 86 92 83 64 36 9 7 9 17 16 10 348 333 330 333 344 348 343 334 319 316 329 331 318 305 292 286 292 299 309 306 305 314 313 308 301 304
67 70 79 78 55 18 12 11 15 16 20 358 338 329 337 344 344 345 337 333 327 318 323 326 319 312 298 289 289 297 304 304 314 310 306 301 299 294
109 79 65 68 59 35 22 15 13 12 8 351 347 347 348 348 340 343 340 333 327 318 323 325 318 306 295 295 300 302 310 310 308 312 315 307 297 298
100 92 77 76 75 48 39 19 15 10 3 356 352 352 348 345 339 340 341 339 331 328 326 326 335 337 333 315 296 313 313 307 307 311 315 311 305 305
100 98 72 47 53 51 44 34 6 353 3 2 351 350 350 345 343 341 344 345 337 330 326 328 340 344 330 318 308 317 310 308 313 314 310 306 302 304
97 100 80 62 62 53 39 25 11 10 13 5 359 359 360 354 347 342 340 335 326 321 324 331 337 333 312 301 299 305 310 311 314 308 304 300 291 293
114 93 68 72 71 61 47 44 35 20 12 8 2 359 358 355 343 335 331 331 330 328 327 322 315 320 311 312 308 306 308 311 311 306 307 309 309 306
136 134 100 78 75 70 63 56 37 19 8 7 1 354 350 348 334 329 328 326 324 321 317 313 317 322 320 311 306 306 308 313 310 305 298 294 302 304
142 128 102 82 80 75 69 55 36 6 1 3 359 347 342 334 325 322 322 320 320 320 319 318 320 318 314 308 308 309 311 314 315 315 305 303 299 295